Terminal Aerodrome Forecast
Issued by NWS

Home | Current Version | Previous Version | Text Only | Print | Product List | Glossary On
Versions: 1 2 3 4 5 6 7 8 9 10 11 12 13 14 15 16
000
FTAK31 PAJN 271100
TAFASI
TAF
PASI 271127Z 2712/2812 10005KT P6SM FEW040 BKN100
     FM271600 VRB05KT P6SM SCT100
     FM272200 16005KT P6SM BKN150
     FM280300 13005KT P6SM BKN090
     FM280600 13005KT P6SM -SN BKN060
     FM281000 13005KT P6SM -RASN BKN040=

USA.gov is the U.S. government's official web portal to all federal, state and local government web resources and services.